#timestamp,LO_Frequency,Hit,StdDev 
1540094415.5,286047000.7,N
1540094435.3,286046998.7,N
1540094455.2,286047000.4,N
1540094475.0,286046999.9,N
1540094475.9,286046999.9,N
1540094495.7,286047003.9,Y
1540094515.6,286047002.6,P
1540094535.4,286047004.1,P
1540094555.3,286047004.0,N
1540094575.1,286047004.2,N
1540094576.0,286047004.2,N
1540094595.8,286047004.1,N
1540094615.7,286047003.3,N
1540094635.5,286047006.0,Y
1540094655.4,286047000.4,P
1540094675.2,286046998.6,N
1540094695.0,286047001.0,N
1540094695.9,286047001.0,N
1540094715.8,286047001.1,N
1540094735.6,286046998.7,N
1540094755.4,286047000.7,N
1540094775.3,286047000.7,N
1540094795.1,286046999.0,N
1540094815.9,286046998.6,N
1540094835.7,286046996.9,N
1540094855.5,286046996.8,N
1540094875.4,286046999.5,N
1540094895.2,286046997.7,N
1540094915.0,286046996.6,N
1540094915.9,286046996.6,N
1540094935.8,286046999.5,N
1540094955.6,286047001.0,N
1540094975.5,286047001.1,N
1540094995.3,286047000.8,N
1540095015.1,286047000.7,N
1540095035.9,286047000.7,N
1540095055.7,286046998.8,N
1540095075.5,286046999.1,N
1540095095.4,286046998.9,N
1540095115.2,286046998.5,N
1540095135.1,286047000.9,N
1540095136.0,286047000.9,N
1540095155.8,286047000.6,N
1540095175.6,286047000.0,N
1540095195.5,286047000.3,N
1540095215.3,286047000.0,N
1540095235.1,286047000.7,N
1540095255.9,286046999.0,N
1540095275.7,286046997.7,N
1540095295.6,286046996.0,N
1540095315.4,286046996.3,N
1540095335.2,286046993.4,Y
1540095355.1,286046995.6,P
1540095356.0,286046995.6,N
1540095375.8,286046995.8,N
1540095395.6,286046995.9,N
1540095415.5,286046993.6,Y
1540095435.3,286046999.4,P
1540095455.2,286046996.6,N
1540095475.9,286046996.8,N
1540095495.7,286046994.9,Y
1540095515.6,286046998.5,P
1540095535.4,286047001.0,N
1540095555.2,286047001.2,N
1540095575.1,286047000.4,N
1540095576.0,286047000.4,N
1540095595.8,286046998.4,N
1540095615.7,286046999.2,N
1540095635.5,286046997.1,N
1540095655.3,286046999.2,N
1540095675.2,286046999.1,N
1540095695.0,286046997.5,N
1540095695.9,286046997.5,N
1540095715.8,286046996.9,N
1540095735.6,286046996.9,N
1540095755.4,286046999.0,N
1540095775.3,286046999.0,N
1540095795.1,286046996.6,N
1540095815.8,286046997.4,N
1540095835.7,286046997.8,N
1540095855.5,286046997.7,N
1540095875.4,286046995.0,Y
1540095895.2,286046999.3,P
1540095915.0,286046999.6,N
1540095915.9,286046999.6,N
1540095935.8,286046998.4,Y
1540095955.6,286046998.2,P
1540095975.4,286047000.4,N
1540095995.3,286046999.9,N
1540096015.1,286047000.4,N
1540096035.9,286047000.6,N
1540096055.7,286046998.7,N
1540096075.5,286047001.1,N
1540096095.4,286046998.5,N
1540096115.2,286047000.3,N
1540096135.0,286046999.0,N
1540096136.0,286046999.0,N
1540096155.8,286046998.7,N
1540096175.6,286046996.7,Y
1540096195.5,286046998.2,P
1540096215.3,286046998.3,N
1540096235.1,286047001.2,N
1540096255.9,286047001.2,N
1540096275.7,286046999.9,N
1540096295.6,286047000.3,N
1540096315.4,286046998.2,N
1540096335.2,286046998.1,N
1540096355.1,286046999.2,N
1540096356.0,286046999.2,N
1540096375.8,286046999.1,N
1540096395.6,286046998.6,N
1540096415.5,286046998.6,N
1540096435.3,286046999.5,N
1540096455.2,286046999.3,N
1540096475.9,286046998.8,N
1540096495.7,286046997.5,N
1540096515.6,286046996.7,Y
1540096535.4,286046996.9,P
1540096555.2,286046999.6,N
1540096575.1,286046997.4,N
1540096576.0,286046997.4,N
1540096595.8,286046995.6,Y
1540096615.7,286046998.6,P
1540096635.5,286046998.4,P
1540096655.3,286046996.7,P
1540096675.2,286046997.8,Y
1540096695.0,286047000.3,P
1540096695.9,286047000.3,N
1540096715.8,286047000.0,N
1540096735.6,286047002.6,N
1540096755.4,286047002.6,N
1540096775.3,286047002.7,N
1540096795.1,286047002.3,N
1540096815.8,286047002.2,N
1540096835.7,286047004.4,N
1540096855.5,286047002.5,N
1540096875.4,286047002.7,N
1540096895.2,286047002.0,N
1540096915.0,286047002.0,N
1540096915.9,286047002.0,N
1540096935.8,286047002.0,N
1540096955.6,286047000.0,N
1540096975.4,286047002.7,N
1540096995.3,286047000.0,N
1540097015.1,286047002.3,N
1540097035.9,286047002.6,N
1540097055.7,286047002.1,N
1540097075.5,286047001.5,N
1540097095.4,286047001.3,N
1540097115.2,286047001.5,N
1540097135.0,286047000.1,N
1540097135.9,286047000.1,N
1540097155.8,286047000.8,N
1540097175.6,286047001.1,N
1540097195.5,286046997.1,N
1540097215.3,286046999.2,N
1540097235.1,286046997.2,N
1540097255.9,286046996.6,N
1540097275.7,286046997.8,N
1540097295.5,286046994.9,N
1540097315.4,286046993.9,N
1540097335.2,286046994.6,N
1540097355.1,286046994.4,N
1540097356.0,286046994.4,N
1540097375.8,286046992.1,N
1540097395.6,286046994.4,N
1540097415.5,286046993.0,N
1540097435.3,286046990.2,N
1540097455.1,286046991.3,N
1540097475.9,286046991.6,N
1540097495.7,286046991.1,N
1540097515.6,286046991.4,N
1540097535.4,286046988.5,N
1540097555.2,286046988.9,N
1540097575.1,286046990.1,N
1540097576.0,286046990.1,N
1540097595.8,286046991.9,N
1540097615.7,286046994.6,N
1540097635.5,286046991.7,N
1540097655.3,286046991.7,N
1540097675.2,286046994.0,N
1540097695.9,286046992.0,N
1540097715.7,286046991.7,N
1540097735.6,286046994.5,N
1540097755.4,286046994.2,N
1540097775.2,286046993.9,N
1540097795.1,286046993.7,N
1540097796.0,286046993.7,N
1540097815.8,286046995.8,N
1540097835.7,286046995.2,N
1540097855.5,286046995.8,N
1540097875.3,286046994.2,N
1540097895.2,286046995.5,N
1540097915.0,286046995.2,N
1540097915.9,286046995.2,N
1540097935.8,286046995.6,N
1540097955.6,286046995.0,N
1540097975.4,286046993.9,N
1540097995.3,286046994.0,N
